Regional Weather Roundup
Issued by NWS Goodland, KS

Home | Current Version | Previous Version | Text Only | Print | Product List | Glossary On
Versions: 1 2 3 4 5 6 7 8 9 10 11 12 13 14 15 16 17 18 19 20 21 22 23 24 25 26 27 28 29 30 31 32 33 34 35 36 37 38 39 40 41 42 43 44 45 46 47 48 49 50
000
ASUS43 KGLD 301108
RWRGLD

GOODLAND FORECAST AREA HOURLY WEATHER ROUNDUP
NATIONAL WEATHER SERVICE GOODLAND KS
500 AM MDT TUE MAY 30 2017

...OFFICIAL OBSERVATIONS...

CITY           SKY/WX    TMP DP  RH WIND       PRES   REMARKS
GOODLAND KS    CLEAR     50  47  89 W9        30.16R
HILL CITY KS   CLEAR     53  50  89 W7        30.11S
IMPERIAL NEB   CLEAR     47  44  90 NW6       30.13R
MCCOOK NEB     PTCLDY    50  47  89 W8        30.12R
AKRON CO       CLEAR     49  41  74 SW13      30.19R
BURLINGTON CO  CLEAR     45  43  93 W7        30.18S
LIMON CO       CLEAR     37  37 100 N7        30.23S
$$

...UNOFFICIAL OBSERVATIONS...

CITY           SKY/WX    TMP DP  RH WIND       PRES   REMARKS
LENORA KS        N/A     50  32  50 MISG        N/A
NORTON KS      CLEAR     50  45  81 W6        30.10S
SHARON SPRINGS   N/A     47  45  92 W7          N/A
TRENTON NEB      N/A     50  32  50 CALM        N/A
KIT CARSON CO    N/A     43  40  89 MISG        N/A
YUMA CO        FAIR      45  41  87 W8        30.17R
$$




USA.gov is the U.S. government's official web portal to all federal, state and local government web resources and services.